EHI
0 0 0 0 0 0 0 0 0 0 0 0 0 0 0 0 0 0 0 0 0 0 0 0 0 0 0 0 0 0 0 0 0 0 0 0 0 0
0 0 0 0 0 0 0 0 0 0 0 0 0 0 0 0 0 0 0 0 0 0 0 0 0 0 0 0 0 0 0 0 0 0 0 0 0 0
0 0 0 0 0 0 0 0 0 0 0 0 0 0 0 0 0 0 0 0 0 0 0 0 0 0 0 0 0 0 0 0 0 0 0 0 0 0
0 0 0 0 0 0 0 0 0 0 0 0 0 0 0 0 0 0 0 0 0 0 0 0 0 0 0 0 0 0 0 0 0 0 0 0 0 0
0 0 0 0 0 0 0 0 0 0 0 0 0 0 0 0 0 0 0 0 0 0 0 0 0 0 0 0 0 0 0 0 0 0 0 0 0 0
0 0 0 0 0 0 0 0 0 0 0 0 0 0 0 0 0 0 0 0 0 0 0 0 0 0 0 0 0 0 0 0 0 0 0 0 0 0
0 0 0 0 0 0 0 0 0 0 0 0 0 0 0 0 0 0 0 0 0 0 0 0 0 0 0 0 0 0 0 0 0 0 0 0 0 0
0 0 0 0 0 0 0 0 0 0 0 0 0 0 0 0 0 0 0 0 0 0 0 0 0 0 0 0 0 0 0 0 0 0 0 0 0 0
0 0 0 0 0 0 0 0 0 0 0 0 0 0 0 0 0 0 0 0 0 0 0 0 0 0 0 0 0 0 0 0 0 0 0 0 0 0
0 0 0 0 0 0 0 0 0 0 0 0 0 0 0 0 0 0 0 0 0 0 0 0 0 0 0 0 0 0 0 0 0 0 0 0 0 0
0 0 0 0 0 0 0 0 0 0 0 0 0 0 0 0 0 0 0 0 0 0 0 0 0 0 0 0 0 0 0 0 0 0 0 0 0 0
0 0 0 0 0 0 0 0 0 0 0 0 0 0 0 0 0 0 0 0 0 0 0 0 0 0 0 0 0 0 0 0 0 0 0 0 0 0
0 0 0 0 0 0 0 0 0 0 0 0 0 0 0 0 0 0 0 0 0 0 0 0 0 0 0 0 0 0 0 0 0 0 0 0 0 0
0 0 0 0 0 0 0 0 0 0 0 0 0 0 0 0 0 0 0 0 0 0 0 0 0 0 0 0 0 0 0 0 0 0 0 0 0 0
0 0 0 0 0 0 0 0 0 0 0 0 0 0 0 0 0 0 0 0 0 0 0 0 0 0 0 0 0 0 0 0 0 0 0 0 0 0
0 0 0 0 0 0 0 0 0 0 0 0 0 0 0 0 0 0 0 0 0 0 0 0 0 0 0 0 0 0 0 0 0 0 0 0 0 0
0 0 0 0 0 0 0 0 0 0 0 0 0 0 0 0 0 0 0 0 0 0 0 0 0 0 0 0 0 0 0 0 0 0 0 0 0 0
0 0 0 0 0 0 0 0 0 0 0 0 0 0 0 0 0 0 0 0 0 0 0 0 0 0 0 0 0 0 0 0 0 0 0 0 0 0
0 0 0 0 0 0 0 0 0 0 0 0 0 0 0 0 0 0 0 0 0 0 0 0 0 0 0 0 0 0 0 0 0 0 0 0 0 0
0 0 0 0 0 0 0 0 0 0 0 0 0 0 0 0 0 0 0 0 0 0 0 0 0 0 0 0 0 0 0 0 0 0 0 0 0 0
0 0 0 0 0 0 0 0 0 0 0 0 0 0 0 0 0 0 0 0 0 0 0 0 0 0 0 0 0 0 0 0 0 0 0 0 0 0
0 0 0 0 0 0 0 0 0 0 0 0 0 0 0 0 0 0 0 0 0 0 0 0 0 0 0 0 0 0 0 0 0 0 0 0 0 0
0 0 0 0 0 0 0 0 0 0 0 0 0 0 0 0 0 0 0 0 0 0 0 0 0 0 0 0 0 0 0 0 0 0 0 0 0 0
Wind_Speed
3 3 2 2 2 2 2 2 3 3 3 2 2 1 1 1 3 2 2 4 5 5 6 6 6 6 6 6 6 6 6 7 7 8 8 8 9 8
2 2 3 2 2 2 2 2 3 3 4 2 2 2 2 2 3 2 3 5 6 6 6 6 6 6 6 6 6 6 7 7 8 8 9 9 9 9
2 3 3 3 3 2 2 2 2 3 4 3 2 2 2 2 2 2 2 2 3 5 6 6 6 6 6 6 7 7 7 8 9 9 9 10 10 10
4 3 4 3 3 3 2 3 3 3 4 4 2 2 2 2 2 2 2 2 2 5 6 6 6 6 6 6 7 7 8 8 9 9 10 10 10 11
4 4 4 4 4 3 4 4 3 3 3 3 3 1 1 2 2 2 2 2 3 4 4 5 5 6 6 7 7 7 7 8 8 9 9 9 10 10
4 5 5 5 5 5 4 4 4 3 2 3 3 2 1 1 1 2 3 2 2 3 3 4 6 7 7 7 7 7 8 8 8 8 8 9 9 10
3 4 5 5 6 5 4 4 4 3 3 3 3 2 2 1 2 2 3 2 2 2 2 2 3 3 3 6 7 7 8 8 8 9 9 9 9 10
4 4 4 5 6 7 7 6 5 5 5 4 4 4 4 3 3 3 2 2 3 1 2 3 2 3 3 2 6 7 8 8 8 9 9 9 10 11
4 4 4 4 5 4 5 5 5 6 7 5 5 6 5 4 4 4 4 4 4 2 2 4 2 3 3 4 8 8 8 8 8 9 9 10 10 10
3 4 4 4 5 4 3 4 4 4 5 4 5 5 4 4 5 5 4 3 3 2 2 3 2 3 3 3 7 7 7 8 9 10 10 10 10 10
3 4 4 4 6 6 4 4 4 4 4 5 5 5 6 6 4 2 2 2 3 2 2 2 2 3 3 3 4 6 7 9 10 10 10 9 9 8
3 3 5 6 7 7 5 4 5 5 3 3 3 4 3 3 5 3 3 4 3 3 2 2 2 1 3 2 2 3 4 8 10 10 11 10 9 5
3 3 3 7 8 8 7 4 6 5 3 3 3 2 2 2 3 3 3 4 4 4 2 2 2 1 2 4 3 2 2 3 4 6 8 10 9 6
3 3 4 7 8 7 6 6 6 4 2 2 2 2 2 3 3 3 4 3 3 4 4 3 3 3 2 3 4 3 3 3 3 4 4 7 7 8
3 6 7 7 6 5 6 7 5 2 2 3 3 3 3 3 2 2 2 2 2 3 3 3 3 3 3 4 4 4 4 4 3 3 3 4 4 3
3 4 6 6 5 5 4 4 3 3 3 3 3 2 2 2 2 2 2 2 2 2 2 3 4 4 4 5 5 5 4 4 3 4 4 4 4 3
2 1 1 2 2 2 2 2 2 2 3 3 3 2 2 3 3 2 2 2 3 3 2 2 2 3 5 5 4 5 4 4 4 4 4 5 4 4
3 2 2 2 2 2 3 3 2 3 3 3 3 3 3 3 3 3 3 3 3 3 3 2 2 2 2 3 6 5 4 4 3 4 3 4 5 4
2 1 2 2 2 2 3 3 3 3 3 3 3 3 3 3 3 3 3 3 3 3 3 3 2 2 3 4 4 5 4 3 3 3 4 4 5 5
1 2 2 2 2 3 3 3 3 2 3 3 3 3 3 3 3 4 4 4 3 3 3 3 4 4 5 4 3 4 6 5 4 4 4 4 4 6
2 2 2 2 3 3 3 3 3 3 3 3 3 4 4 4 4 4 4 6 5 4 4 4 4 5 2 1 3 4 4 5 6 4 4 3 4 3
2 3 3 3 3 3 3 3 3 3 3 3 3 4 4 4 5 5 4 4 4 4 4 3 2 2 2 3 4 4 4 4 5 6 6 6 3 3
3 3 3 3 3 3 3 3 3 3 3 3 3 3 4 4 4 4 4 4 4 3 3 3 2 2 2 3 3 3 4 3 3 3 3 5 7 9
Wind_Direction
221 226 230 230 219 214 212 199 198 240 259 248 254 282 293 298 315 318 308 313 304 298 297 298 298 296 294 294 291 292 298 302 303 303 305 305 306 298
223 217 234 239 224 217 212 222 220 221 242 240 245 280 294 303 307 316 301 314 310 300 297 292 290 288 289 292 293 293 294 294 294 294 295 297 299 298
230 223 237 240 227 219 214 220 223 223 244 266 263 285 276 284 300 295 294 291 297 296 294 293 294 295 291 289 292 292 290 289 290 290 289 290 292 294
231 227 235 237 232 221 214 222 225 226 227 254 267 269 268 267 276 285 303 305 292 293 292 294 295 295 294 295 295 294 294 291 290 289 287 287 287 292
233 229 230 227 234 226 218 219 226 235 230 234 255 255 275 277 289 295 299 296 299 302 299 298 300 300 299 298 297 295 295 291 290 289 289 292 290 292
242 234 232 228 230 227 222 219 219 226 226 231 249 251 256 260 252 273 292 290 300 306 298 299 299 298 298 297 296 295 290 288 288 289 291 292 290 291
250 242 239 238 240 238 230 218 212 216 219 228 243 248 239 238 243 246 266 287 289 288 289 289 291 290 290 289 290 292 292 291 290 291 291 292 291 291
253 253 249 244 247 250 249 244 230 221 222 225 236 240 242 238 235 245 254 274 275 256 280 288 283 282 291 283 290 295 297 297 295 295 294 294 295 293
247 249 260 256 257 244 251 250 248 248 235 226 232 235 234 227 223 234 233 239 256 249 258 272 276 278 287 289 294 297 301 300 298 302 301 298 298 298
253 245 248 254 247 241 237 235 237 244 238 232 228 234 235 227 218 225 228 252 280 266 237 265 274 276 288 284 285 292 302 304 303 303 300 295 295 299
263 260 254 251 256 251 238 238 246 253 248 244 247 253 258 253 240 217 216 236 270 266 227 245 271 292 284 272 279 292 299 302 304 304 304 297 296 301
277 265 261 259 263 260 239 232 240 247 244 249 257 268 259 249 240 220 213 226 248 260 218 225 258 304 294 274 273 288 289 292 297 300 301 295 292 291
278 276 269 270 270 266 259 241 245 248 229 223 234 244 245 238 233 231 227 226 231 248 228 213 246 248 253 287 291 278 276 291 296 293 296 293 288 286
271 271 271 278 278 274 267 262 264 260 222 220 230 239 244 243 241 235 237 240 239 246 232 213 228 228 243 270 279 287 285 284 285 290 292 293 286 287
274 274 279 284 286 281 273 269 263 240 224 230 236 240 238 242 243 238 241 251 267 259 234 229 229 236 236 249 266 279 294 286 278 281 288 291 281 281
291 281 284 284 285 284 283 274 254 238 233 236 238 243 243 233 233 231 237 240 261 279 261 239 238 231 241 248 251 264 263 263 278 289 290 288 281 262
289 294 284 277 270 269 273 261 245 241 245 243 238 237 243 244 242 229 224 225 233 250 269 267 257 252 242 238 247 250 256 265 266 278 289 290 282 262
289 271 267 257 255 254 256 261 251 240 241 242 240 236 238 241 246 240 226 223 236 243 250 258 276 292 286 266 232 241 248 257 267 273 277 277 280 277
302 283 277 271 267 260 254 254 255 248 239 237 240 239 237 239 241 237 232 231 242 245 243 236 231 231 258 272 266 227 233 258 267 271 267 265 269 278
321 289 283 281 276 272 267 261 256 252 244 240 237 234 229 231 234 234 233 232 242 249 252 238 226 225 233 246 257 263 250 250 252 263 270 277 275 280
312 299 287 283 279 276 272 267 262 253 247 244 240 233 229 227 232 231 232 240 244 241 245 248 245 257 253 234 256 267 260 254 260 258 258 271 281 282
300 299 297 290 283 275 270 267 262 258 251 246 244 239 234 228 231 232 230 233 240 243 250 259 255 247 228 232 251 264 276 286 286 286 269 249 243 248
295 292 289 289 286 281 271 263 257 256 249 245 245 241 235 234 231 230 230 232 235 241 246 255 256 246 249 244 249 261 268 284 299 304 291 285 278 271